Gainesville, GA

7:17 PM EDT on June 22, 2017 (GMT -0400)
Gilmer Memorial

Weather History for KGVL - November, 2012

Change the Weather History Date:

Thursday, November 22, 2012

  Actual Average Record
Temperature  
Mean Temperature 54 °F 51 °F  
Max Temperature 64 °F 59 °F 76 °F (1958)
Min Temperature 43 °F 42 °F 11 °F (1937)
Degree Days  
Heating Degree Days 12 15  
Month to date heating degree days 249  
Since 1 July heating degree days 407  
Growing Degree Days 4 (Base 50)    
Moisture  
Dew Point 36 °F    
Average Humidity 55    
Maximum Humidity 85    
Minimum Humidity 34    
Precipitation  
Precipitation 0.00 in 0.17 in 2.34 in (1962)
Month to date precipitation 2.88  
Year to date precipitation 47.89  
Snow  
Snow 0.00 in - - ()
Month to date snowfall  
Since 1 July snowfall  
Since 1 September snowfall  
Snow Depth -    
Sea Level Pressure  
Sea Level Pressure 30.21 in    
Wind  
Wind Speed 1 mph (SW)    
Max Wind Speed 7 mph    
Max Gust Speed -    
Visibility 10 miles    
Events      
T = Trace of Precipitation, MM = Missing Value Source: NWS Daily Summary

Daily Weather History Graph

Daily Weather History Graph

Search for Another Location

Airport or City:

Trip Planner

Search our weather history database for the weather conditions in past years. The results will help you decide how hot, cold, wet, or windy it might be!

Date:

Astronomy

Nov. 22, 2012 Rise Set
Actual Time 7:15 AM EST 5:27 PM EST
Civil Twilight 6:48 AM EST 5:54 PM EST
Nautical Twilight 6:17 AM EST 6:25 PM EST
Astronomical Twilight 5:47 AM EST 6:55 PM EST
Moon 2:00 PM EST 1:47 AM EST
Length of Visible Light 11h 06m
Length of Day
10h 12m
Waxing Gibbous, 71% of the Moon is Illuminated
Nov 22
Waxing Gibbous
Nov 28
Full
Dec 6
Last Quarter
Dec 13
New
Dec 20
First Quarter

Hourly Weather History & Observations

Time (EST) Temp. Dew Point Humidity Pressure Visibility Wind Dir Wind Speed Gust Speed Precip Events Conditions
12:53 AM 51.1 °F 37.9 °F 61% 30.17 in 10.0 mi Calm Calm - N/A   Clear
1:53 AM 48.0 °F 39.9 °F 74% 30.18 in 10.0 mi Calm Calm - N/A   Clear
2:53 AM 48.0 °F 39.9 °F 74% 30.18 in 10.0 mi Calm Calm - N/A   Clear
3:53 AM 46.0 °F 39.9 °F 79% 30.19 in 10.0 mi Calm Calm - N/A   Clear
4:53 AM 46.0 °F 39.9 °F 79% 30.20 in 10.0 mi Calm Calm - N/A   Clear
5:53 AM 44.1 °F 39.9 °F 85% 30.22 in 9.0 mi Calm Calm - N/A   Clear
6:53 AM 43.0 °F 37.9 °F 82% 30.24 in 10.0 mi Calm Calm - N/A   Clear
7:53 AM 45.0 °F 37.9 °F 76% 30.26 in 10.0 mi Calm Calm - N/A   Clear
8:53 AM 50.0 °F 37.0 °F 61% 30.28 in 10.0 mi East 5.8 mph - N/A   Clear
9:53 AM 54.0 °F 35.1 °F 49% 30.29 in 10.0 mi ENE 3.5 mph - N/A   Clear
10:53 AM 57.0 °F 33.1 °F 40% 30.28 in 10.0 mi Calm Calm - N/A   Clear
11:53 AM 60.1 °F 32.0 °F 35% 30.26 in 10.0 mi Calm Calm - N/A   Clear
12:53 PM 61.0 °F 33.1 °F 35% 30.22 in 10.0 mi WSW 5.8 mph - N/A   Clear
1:53 PM 63.0 °F 35.1 °F 35% 30.20 in 10.0 mi West 6.9 mph - N/A   Clear
2:53 PM 64.0 °F 35.1 °F 34% 30.18 in 10.0 mi West 6.9 mph - N/A   Clear
3:53 PM 64.0 °F 35.1 °F 34% 30.17 in 10.0 mi West 5.8 mph - N/A   Clear
4:53 PM 62.1 °F 36.0 °F 38% 30.18 in 10.0 mi SW 3.5 mph - N/A   Clear
5:53 PM 59.0 °F 36.0 °F 42% 30.19 in 10.0 mi SSW 3.5 mph - N/A   Clear
6:53 PM 55.9 °F 36.0 °F 47% 30.20 in 10.0 mi SW 3.5 mph - N/A   Clear
7:53 PM 55.0 °F 35.1 °F 47% 30.20 in 10.0 mi SW 3.5 mph - N/A   Clear
8:53 PM 55.0 °F 35.1 °F 47% 30.20 in 10.0 mi SW 3.5 mph - N/A   Clear
9:53 PM 51.1 °F 35.1 °F 54% 30.20 in 10.0 mi Calm Calm - N/A   Clear
10:53 PM 51.1 °F 35.1 °F 54% 30.20 in 10.0 mi Calm Calm - N/A   Clear
11:53 PM 48.0 °F 37.0 °F 66% 30.19 in 10.0 mi Calm Calm - N/A   Clear